Overview Statistics Trail Chart Weather Telemetry Raw packets
 

This is the latest recevied weather packets stored in our database for station/object KC2GYU. If no packets are shown the sender has not sent any weather packets the latest 10 day(s).

<< 74 75 76 77 78 79 80 >>
Time Temp. Humidity Pressure Rain* Wind** Luminosity Snow
1777503487 10.56° C 92% 1011.3 hPa 0 mm - 10 W/m² -
1777503183 10.56° C 92% 1011 hPa 0 mm - 11 W/m² -
1777502880 10.56° C 92% 1011.2 hPa 0 mm - 12 W/m² -
1777502578 10.56° C 92% 1011.3 hPa 0 mm - 13 W/m² -
1777502275 11.11° C 92% 1011.4 hPa 0 mm - 15 W/m² -
1777501971 11.11° C 92% 1011.5 hPa 0 mm - 15 W/m² -
1777501668 11.11° C 92% 1011.6 hPa 0 mm - 19 W/m² -
1777501365 11.11° C 92% 1011.8 hPa 0 mm - 21 W/m² -
1777501063 11.11° C 91% 1011.6 hPa 0 mm - 22 W/m² -
1777500761 11.11° C 91% 1011.7 hPa 0 mm - 23 W/m² -
1777500458 11.11° C 91% 1011.7 hPa 0 mm - 23 W/m² -
1777500153 11.11° C 91% 1012.1 hPa 0 mm - 26 W/m² -
1777499851 11.67° C 90% 1011.7 hPa 0 mm - 36 W/m² -
1777499546 11.67° C 90% 1011.6 hPa 0 mm - 46 W/m² -
1777499245 11.67° C 90% 1011.7 hPa 0 mm - 55 W/m² -
1777498942 11.67° C 90% 1011.9 hPa 0 mm - 55 W/m² -
1777498638 11.67° C 90% 1012 hPa 0 mm - 58 W/m² -
1777498334 11.67° C 90% 1012.3 hPa 0 mm - 59 W/m² -
1777498032 11.67° C 90% 1012.3 hPa 0 mm - 61 W/m² -
1777497729 11.67° C 90% 1012.2 hPa 0 mm - 72 W/m² -
1777497425 11.67° C 90% 1012.1 hPa 0 mm - 80 W/m² -
1777497121 11.67° C 89% 1011.9 hPa 0 mm - 96 W/m² -
1777496818 12.22° C 88% 1011.7 hPa 0 mm - 122 W/m² -
1777496515 12.22° C 87% 1011.7 hPa 0 mm - 114 W/m² -
1777496211 12.78° C 85% 1011.9 hPa 0 mm - 114 W/m² -

* Rain latest hour (hover to see other rain measurements)
** Current wind speed in m/s (hover to see current wind gust speed)